Hourly Weather Roundup
Issued by NWS Central Illinois

Home | Current Version | Previous Version | Text Only | Print | Product List | Glossary On
Versions: 1 2 3 4 5 6 7 8 9 10 11 12 13 14 15 16 17 18 19 20 21 22 23 24 25 26 27 28 29 30 31 32 33 34 35 36 37 38 39 40 41 42 43 44 45 46 47 48 49 50
000
NZUS43 KILX 261110
HWRILX

Area Weather Roundup
National Weather Service Lincoln IL
600 AM CDT WED APR 26 2017

NOTE:  "FAIR" indicates few or no clouds below 12,000 feet, with
       no sigificant weather and/or obstructions to visibility.


CITY           SKY/WX    TMP DP  RH WIND       PRES   REMARKS
Bloomington    CLOUDY    63  55  75 S16       29.48S
Champaign      CLOUDY    65  54  67 S21G28    29.51S
Danville       CLOUDY    64  55  72 S13       29.51S
Decatur        CLOUDY    66  56  70 S17G25    29.50R
Effingham      MOCLDY    65  57  74 SE8       29.57R
Flora          CLOUDY    64  56  75 S12       29.57R
Galesburg      RAIN      63  53  71 S13       29.44R
Jacksonville   CLOUDY    60  57  91 SW8       29.47R
Lacon          CLOUDY    63  53  71 S7        29.42S
Lawrenceville  MOCLDY    64  57  78 S14       29.59R
Litchfield     CLOUDY    64  55  70 S20       29.51R
$$


CITY           SKY/WX    TMP DP  RH WIND       PRES   REMARKS
Lincoln        LGT RAIN  65  56  70 S13       29.47R
Macomb         RAIN      60  57  91 SW13      29.47R
Mattoon        PTCLDY    63  57  81 S13       29.54R
Mt Carmel AP   CLOUDY    63  55  75 S13       29.59S
Olney-Noble AP PTCLDY    64  60  87 S9        29.58R
Paris AP       MOCLDY    62  56  81 S14       29.56S
Peoria         CLOUDY    65  53  65 SE12      29.41F
Pontiac        CLOUDY    65  57  75 S18       29.47S
Rantoul        CLOUDY    66  57  74 S15       29.51S
Robinson       CLOUDY    64  56  75 S13       29.58S
Springfield    CLOUDY    67  53  61 S16       29.46R
Taylorville    CLOUDY    65  54  65 S16G24    29.49S
$$

...REGIONAL REPORTS...


CITY           SKY/WX    TMP DP  RH WIND       PRES   REMARKS
Chicago O`Hare CLOUDY    64  54  69 S14       29.46F
Kankakee       CLOUDY    63  55  74 S13       29.49F
Moline         LGT RAIN  64  52  64 W6        29.39R
Mount Sterling RAIN      58  58  97 W5        29.43F
Mount Vernon   CLOUDY    64  56  75 SW9       29.58R
Pittsfield     DRIZZLE   61  59  96 S6        29.48F
Quincy         LGT RAIN  61  60  97 S8        29.42F
Rockford       MOCLDY    63  53  70 S9        29.42F
$$


CITY           SKY/WX    TMP DP  RH WIND       PRES   REMARKS
Burlington     RAIN      61  61 100 SW7       29.42R FOG
Cedar Rapids   CLOUDY    53  53 100 W9        29.38F FOG
Des Moines     CLOUDY    45  41  86 NW14      29.50R
Kirksville     CLOUDY    51  50  96 W10       29.45R
Ottumwa        CLOUDY    50  48  93 W12       29.43F
St Louis       CLOUDY    65  57  75 W8        29.48F
$$


CITY           SKY/WX    TMP DP  RH WIND       PRES   REMARKS
Terre Haute    CLOUDY    64  55  72 S14       29.58S
Evansville     MOCLDY    63  56  78 S8        29.63R
Indianapolis   CLOUDY    60  55  83 SE12      29.61F
Lafayette      CLOUDY    63  56  78 S8        29.55F
Madison        CLOUDY    63  54  72 S8        29.39F
Milwaukee      CLOUDY    59  53  80 S8        29.46F
$$






USA.gov is the U.S. government's official web portal to all federal, state and local government web resources and services.